User: anonymous   Login
Location: Caltech
(34.1382°N, 118.1253°W)
Time: 03:49:34
(UTC-07:00)
Language:

SL-08 R/B - Orbit

View from above orbital plane
View from above orbital plane
View from above satellite
View from above satellite

Ground track
Ground track

The orbit data is extracted from the following two-line orbital elements,

1 27561U 02054C   18114.85044726 +.00402556 +00000-0 +81815-1 0  9999
2 27561 098.2988 251.0161 0044467 293.4020 066.2505 14.58229319817620
Epoch (UTC): 24 April 2018 20:24:38
Eccentricity: 0.0044467
inclination: 98.2988°
perigee height: 667 km
apogee height: 730 km
right ascension of ascending node: 251.0161°
argument of perigee: 293.4020°
revolutions per day: 14.58229319
mean anomaly at epoch: 66.2505°
orbit number at epoch: 81762

The dashed part of the orbit path shows where the satellite is in the earth's shadow,  

DLR